Location: Aressy
(43.2833°N, 0.3167°W)
Time: 17:48:25
(UTC+00:00)

Cosmos 1048 Rocket - Pass Details

Date: 28 January 2021
Orbit: 743 x 791 km, 74.0° (Epoch: 03 March)

Event Time Altitude Azimuth Distance (km) Brightness Sun altitude
Rises 18:40:05 0° 345° (NNW) 3,196 7.3 -16.8°
Reaches altitude 10° 18:42:33 10° 352° (N) 2,271 6.4 -17.3°
Maximum altitude 18:47:27 44° 64° (ENE) 1,040 4.2 -18.1°
Enters shadow 18:49:37 28° 116° (ESE) 1,374 4.9 -18.5°
